Tracking 35280 objects as of 7-Sep-2026
HD Live streaming from Space Station
objects crossing your sky now

STARLINK-30104

Track STARLINK-30104 now!
10-day predictions
STARLINK-30104 is classified as:


NORAD ID: 56300
Int'l Code: 2023-056Q
Launch date: April 19, 2023
Source: United States (US)
Launch site: AIR FORCE EASTERN TEST RANGE (AFETR)
Your satellite tracking list
Your tracking list is empty




NASA's NSSDC Master Catalog

Two Line Element Set (TLE):
1 56300U 23056Q   26250.10788209  .00001932  00000-0  79700-4 0  9992
2 56300  43.0034 264.5357 0001574 277.6320  82.4353 15.27580504187846
Source of the keplerian elements: AFSPC